Flag for Indonesia Weather past 2 weeks in Serang, Banten, Indonesia

Now
81 °F

Passing clouds.


Feels Like: 84 °F
Forecast: 78 / 88 °F
Wind: 12 mph from West

Location: Jakarta / Soekarno-Hatta

Current Time: Jul 23, 2014 at 7:23:34 PM

Latest Report: Jul 23, 2014 at 6:30 PM


Visibility: 5 mi

Pressure: 29.83 "Hg

Humidity: 70%

Dew point: 70 °F

Location of SerangLocation

Historic Weather in Serang — Graph

°F

Serang temperature yesterday

Maximum temperature yesterday: 91 °F (at 12:30 PM)
Minimum temperature yesterday: 79 °F (at 12:30 AM)
Average temperature yesterday: 84 °F

Past Weeks' High & Low Weather Summary

 TemperatureHumidityPressure
High126 °F (Jul 20, 11:30 PM)100% (Jul 14, 8:00 PM)29.92 "Hg (Jul 14, 8:00 PM)
Low41 °F (Jul 21, 3:00 AM)20% (Jul 20, 11:30 PM)29.71 "Hg (Jul 9, 2:00 PM)
Average82 °F76%29.83 "Hg
* Reported Jul 8 6:00 PM — Jul 23 6:00 PM, Serang, Weather by CustomWeather, © 2014

Note: Actual official high and low records may vary slightly from our data, if they occured in-between our weather recording intervals... More about our weather records

Advertising

Serang weather history for previous 24 hours

 ConditionsComfort  
Time TempWeatherWind HumidityBarometerVisibility
6:00 PM
Jul 23
82 °FPassing clouds.15 mph66%29.83 "Hg5 mi
5:30 PM84 °FScattered clouds.13 mph62%29.83 "Hg5 mi
5:00 PM86 °FScattered clouds.15 mph59%29.80 "Hg5 mi
4:30 PM88 °FPassing clouds.16 mph52%29.80 "Hg5 mi
4:00 PM90 °FPassing clouds.14 mph55%29.80 "Hg6 mi
3:00 PM91 °FScattered clouds.16 mph46%29.77 "Hg6 mi
1:00 PM88 °FScattered clouds.9 mph66%29.83 "Hg5 mi
12:30 PM88 °FScattered clouds.9 mph66%29.83 "Hg5 mi
12:00 PM88 °FScattered clouds.7 mph66%29.86 "Hg4 mi
11:30 AM90 °FScattered clouds.5 mph59%29.86 "Hg5 mi
11:00 AM90 °FScattered clouds.5 mph59%29.86 "Hg5 mi
10:30 AM88 °FScattered clouds.3 mph62%29.89 "Hg5 mi
10:00 AM86 °FPartly sunny.3 mph66%29.89 "Hg5 mi
9:30 AM82 °FPartly sunny.7 mph74%29.92 "Hg5 mi
9:00 AM82 °FPartly sunny.7 mph74%29.89 "Hg4 mi
8:30 AM81 °FPartly sunny.7 mph79%29.89 "Hg4 mi
8:00 AM81 °FPartly sunny.7 mph79%29.89 "Hg3 mi
7:30 AM79 °FPartly sunny.6 mph84%29.89 "Hg2 mi
7:00 AM77 °FBroken clouds.5 mph89%29.86 "Hg2 mi
12:00 AM79 °FPartly cloudy.9 mph89%29.86 "Hg4 mi
11:30 PM
Jul 22
79 °FPartly cloudy.8 mph89%29.86 "Hg3 mi
11:00 PM81 °FPartly cloudy.7 mph84%29.86 "Hg3 mi
10:30 PM81 °FPartly cloudy.3 mph84%29.86 "Hg4 mi
10:00 PM81 °FPartly cloudy.2 mph79%29.86 "Hg5 mi
9:30 PM81 °FPartly cloudy.2 mph79%29.86 "Hg4 mi
9:00 PM81 °FPartly cloudy.3 mph74%29.86 "Hg5 mi
8:30 PM81 °FPassing clouds.3 mph79%29.86 "Hg4 mi
8:00 PM81 °FPassing clouds.2 mph74%29.86 "Hg4 mi
7:30 PM82 °FPassing clouds.7 mph74%29.83 "Hg4 mi
7:00 PM84 °FPassing clouds.9 mph74%29.83 "Hg4 mi
Weather by CustomWeather, © 2014

See weather overviewHow to use our weather pages